Temperature
12 12 12 12 12 12 12 12 11 11 11 11 11 11 11 11 11 11 11 11 11 11 11 11 10 10 11 11 11 11 11 11 11 11 11 11 10 10 10 10 10 10 11
12 12 12 11 11 12 12 12 12 12 12 11 11 11 11 11 11 11 11 11 11 10 10 10 10 10 10 10 10 10 10 10 10 10 10 11 10 10 10 10 10 10 10
12 12 11 12 12 11 11 11 11 11 11 11 11 11 11 11 11 11 11 11 11 10 10 10 10 10 10 10 10 10 10 10 10 10 10 10 10 10 10 10 10 10 10
12 12 11 11 11 11 11 11 11 11 11 11 12 11 11 11 11 11 11 11 10 10 10 10 10 10 10 10 10 10 10 10 10 10 10 10 10 10 10 10 10 10 10
12 12 11 11 11 11 11 11 11 11 11 11 11 11 11 11 11 11 11 10 10 10 10 10 10 10 10 10 10 9 9 9 10 10 10 10 10 10 10 10 10 10 10
12 12 11 11 11 11 11 11 11 11 11 11 11 11 11 11 11 11 11 10 10 10 10 10 10 10 10 9 9 9 9 9 9 9 9 9 9 9 9 9 9 10 10
12 12 11 11 11 11 11 11 11 11 11 11 11 11 11 11 11 11 11 10 10 10 10 10 10 10 9 9 9 9 9 9 9 9 9 9 9 9 9 9 9 9 9
12 12 11 11 11 11 11 11 11 11 11 11 11 11 11 10 11 10 10 10 10 10 10 9 9 9 9 9 9 9 9 9 9 8 8 8 8 8 8 8 8 9 9
12 12 11 11 11 11 11 11 11 11 11 11 11 10 10 10 10 10 10 10 10 10 10 9 9 9 9 9 9 9 9 9 9 8 8 8 8 8 8 8 8 9 9
12 11 11 11 11 11 11 11 11 11 11 11 11 10 10 10 10 10 10 10 10 10 9 9 9 9 9 9 9 8 8 8 8 8 8 8 8 8 8 8 8 8 9
11 11 11 11 11 11 11 11 11 11 11 11 11 10 10 10 10 10 10 10 9 9 10 9 9 9 9 9 8 8 8 8 8 8 8 8 8 8 8 8 8 8 8
11 11 11 11 11 11 11 11 11 11 11 11 11 11 11 10 10 10 10 9 9 9 9 9 9 9 9 8 8 8 8 8 8 8 8 8 8 8 8 8 8 8 8
11 11 11 11 11 11 11 11 11 11 12 12 11 11 11 11 10 10 9 9 9 9 9 8 8 8 8 8 8 8 8 8 8 8 8 8 8 7 7 7 7 7 7
11 11 11 11 11 11 11 11 11 12 11 11 11 11 11 10 10 9 9 9 9 9 9 9 9 9 8 8 8 8 8 7 7 7 7 7 7 7 7 7 7 7 8
11 11 11 12 11 11 11 11 11 11 11 11 11 10 10 10 9 9 9 9 8 8 8 8 9 9 9 8 8 8 7 7 7 7 7 7 7 7 7 7 7 7 7
11 11 12 12 12 12 12 11 11 11 11 11 10 10 10 9 9 9 9 9 8 8 8 8 9 9 8 8 8 8 7 7 7 7 7 7 6 6 7 7 7 7 7
11 11 12 12 12 12 12 12 12 11 11 11 10 10 10 10 9 9 9 9 8 8 8 8 8 8 8 8 8 8 7 7 7 7 6 6 6 6 6 6 6 6 7
11 12 12 12 12 12 12 12 12 12 12 11 11 10 10 10 9 9 9 9 9 8 8 8 8 8 8 7 7 7 7 7 6 6 6 6 6 6 6 6 6 6 6
11 12 12 12 12 12 12 12 12 12 12 11 11 10 10 10 9 9 9 8 9 8 8 8 8 8 7 7 7 7 7 6 6 6 6 5 5 5 5 6 6 5 6
12 12 12 12 12 12 12 12 12 12 12 11 11 11 10 10 10 9 9 8 8 8 8 8 7 7 7 7 7 7 7 6 6 6 5 5 5 5 5 5 5 5 5
12 12 12 12 12 12 12 12 12 12 12 12 11 10 10 10 10 9 9 8 8 8 7 7 7 7 7 7 7 6 6 6 6 5 5 5 5 5 5 5 5 5 5
12 12 12 12 12 12 12 12 12 12 12 11 11 10 10 10 10 9 9 8 8 8 7 7 7 7 6 6 6 6 6 5 5 5 5 5 5 5 5 5 5 5 5
12 12 12 12 12 12 12 12 12 12 12 11 11 10 10 10 10 9 9 8 8 7 7 7 7 6 6 6 5 5 5 5 5 4 4 4 4 5 5 5 5 5 5
12 12 12 12 12 12 12 12 12 12 11 11 11 10 10 10 9 9 8 8 8 7 7 7 7 6 6 5 5 5 5 5 4 4 4 4 4 4 4 4 4 5 5
12 12 12 12 12 12 12 12 12 12 11 11 11 10 10 10 9 9 8 8 7 7 7 6 6 6 6 5 5 5 5 5 4 4 4 4 4 4 4 4 4 4 4
13 12 12 12 12 12 12 12 12 11 11 11 11 10 10 10 9 9 8 8 7 7 7 6 6 6 5 5 5 5 5 4 4 4 4 3 4 4 3 4 4 4 4
Wind_Speed
4 4 4 4 3 3 2 3 3 3 4 4 4 4 4 5 5 4 5 5 6 6 6 6 6 5 5 5 5 5 6 6 7 7 6 5 6 7 6 7 8 8 8
4 4 4 4 3 3 3 3 4 4 4 4 5 5 5 5 5 4 5 6 6 7 6 6 5 4 5 5 5 6 5 6 7 8 7 6 7 7 7 7 7 7 8
4 4 4 3 3 3 3 4 4 5 4 4 5 5 5 5 4 4 5 5 6 6 6 5 5 5 5 5 5 5 5 5 5 7 7 6 6 6 7 7 7 6 8
5 4 4 3 3 3 3 4 4 4 4 4 5 5 5 5 4 4 4 5 6 6 5 5 5 5 5 5 5 5 6 7 6 6 7 6 6 6 6 6 6 5 6
5 4 4 3 3 4 4 4 4 4 4 4 4 5 5 4 3 4 5 5 5 5 5 4 4 3 4 5 5 5 6 6 6 6 7 7 6 6 6 6 7 6 6
4 4 4 4 4 4 4 4 4 4 4 4 4 5 5 4 5 4 5 5 5 5 4 4 3 2 3 4 5 6 7 7 7 7 7 7 8 8 7 7 7 7 6
4 4 4 4 4 4 4 4 4 4 4 4 4 4 5 5 4 5 6 5 5 4 4 4 4 3 3 5 4 6 7 7 8 9 9 9 9 8 8 8 7 7 7
4 4 4 4 4 4 4 4 4 4 4 4 4 4 4 4 4 5 7 5 4 4 4 4 4 4 5 5 6 6 6 5 6 7 7 8 8 8 7 8 8 8 8
4 4 4 4 4 4 4 4 4 4 4 4 4 4 4 4 4 5 7 4 3 3 3 3 4 4 4 5 6 7 7 7 5 6 7 8 8 9 8 6 7 6 6
5 4 5 4 4 4 4 4 4 3 3 4 4 4 4 5 5 5 7 4 4 4 3 2 2 4 5 5 5 6 7 7 7 7 5 7 8 7 8 7 7 6 6
5 4 4 4 3 3 3 3 3 3 3 4 4 3 3 4 4 4 6 5 5 5 5 4 4 4 5 5 6 5 7 8 8 7 6 6 6 5 5 5 6 6 6
4 4 4 3 3 3 3 3 2 3 3 3 3 4 3 3 4 4 4 4 6 5 5 5 5 5 6 6 5 5 7 8 6 6 6 5 6 6 6 6 6 6 7
4 3 3 3 2 2 2 2 2 2 3 4 4 4 4 4 4 2 2 3 5 4 5 4 6 8 7 4 3 6 7 5 5 6 6 6 6 6 6 6 6 6 7
3 3 2 2 2 2 2 3 3 3 4 4 5 5 5 5 6 5 5 4 4 4 5 4 6 7 6 4 4 4 4 5 6 6 6 6 6 6 6 6 6 6 6
3 3 3 2 1 2 2 3 3 4 4 4 5 6 5 5 7 8 7 6 6 7 8 6 5 5 5 5 5 5 5 5 5 5 6 6 6 7 6 6 6 6 6
3 3 3 2 2 1 1 1 2 1 1 1 3 5 4 4 5 6 6 6 7 8 6 5 6 6 6 6 6 6 6 6 6 5 5 6 6 7 7 7 6 6 6
3 4 3 3 2 2 3 3 2 0 2 2 2 0 1 3 4 5 6 7 7 6 4 5 6 6 7 7 7 7 7 6 6 6 6 6 6 6 6 7 7 7 7
4 3 4 3 2 2 3 3 3 4 3 2 1 3 3 3 4 5 7 7 3 3 4 5 6 6 7 7 7 7 7 6 6 6 6 6 6 6 7 7 7 7 8
4 3 3 3 2 3 3 3 3 4 4 3 3 1 1 4 6 5 5 4 5 5 5 5 6 6 7 7 7 7 7 6 6 6 6 6 6 7 7 7 7 8 8
3 2 4 3 2 3 3 3 3 3 4 4 3 4 3 3 3 3 3 4 5 5 6 6 6 6 6 7 7 7 6 6 6 6 6 6 7 7 7 8 8 8 7
3 2 4 4 3 3 3 3 4 4 4 4 3 3 5 5 4 5 5 5 5 6 6 6 6 6 6 6 7 7 7 6 6 6 7 7 7 7 7 7 8 8 7
3 3 3 2 2 3 3 4 4 4 4 4 3 2 2 4 4 4 4 5 5 5 5 5 6 6 6 6 7 7 7 7 7 7 8 8 7 7 7 7 7 7 7
4 4 3 2 3 3 4 4 3 3 3 3 3 4 3 4 4 4 5 5 5 5 5 5 5 6 6 6 6 6 6 7 7 8 9 8 8 8 7 7 8 8 8
4 4 3 3 3 4 3 3 3 3 3 3 3 4 4 4 4 4 4 4 4 5 5 5 5 7 8 7 6 6 7 8 9 8 10 9 9 8 8 7 8 8 8
4 4 3 3 4 4 3 3 4 3 3 3 3 3 4 4 4 4 4 4 5 5 5 5 5 6 7 8 7 8 9 10 10 10 9 8 8 8 8 8 7 7 7
5 4 4 4 3 4 4 4 4 4 3 3 3 3 4 4 4 4 4 4 4 4 5 4 5 6 7 6 7 8 7 9 10 12 10 7 7 7 8 7 8 7 7
Wind_Direction
324 326 320 309 297 290 296 308 307 303 301 300 301 299 299 297 295 286 286 290 287 288 286 284 280 282 284 283 279 275 272 271 278 288 294 294 286 285 284 271 262 255 242
321 320 315 307 302 298 303 309 310 310 307 310 306 301 300 300 296 287 286 288 289 289 288 285 286 284 283 283 282 281 281 279 277 285 292 295 290 287 288 279 270 263 265
319 314 311 305 301 303 306 307 308 308 310 314 312 302 303 300 295 289 288 290 290 286 283 281 282 285 287 290 284 286 287 286 285 282 285 291 290 292 289 277 273 271 272
317 311 311 304 298 303 308 307 306 310 312 313 310 305 304 307 305 302 298 290 287 285 283 281 282 283 286 291 286 289 293 292 289 285 289 293 290 291 287 285 282 271 273
320 319 325 318 313 312 314 312 313 314 312 314 311 312 318 318 329 324 306 299 298 300 303 299 297 298 306 294 300 302 300 298 298 295 293 296 297 299 295 288 283 281 273
326 334 338 329 322 315 312 309 313 325 328 322 323 334 344 349 19 346 312 306 307 304 304 306 305 292 269 251 271 284 290 294 303 301 296 296 296 295 295 290 289 286 282
329 337 341 338 334 332 329 329 335 340 338 332 333 346 351 6 14 335 315 302 300 301 303 305 307 322 319 310 279 251 259 258 267 281 290 291 296 303 302 296 292 287 282
327 336 340 334 333 336 336 342 348 349 344 343 345 350 346 10 26 345 321 299 305 305 306 310 315 320 328 318 303 300 298 290 274 273 282 286 291 296 291 285 286 282 273
335 341 342 337 338 344 353 357 359 355 352 348 355 358 357 6 21 347 323 314 323 321 318 327 329 323 352 322 300 301 304 303 273 255 267 274 282 278 276 286 285 279 285
342 348 346 346 347 350 356 354 353 349 350 349 8 2 359 4 25 359 326 326 334 326 320 322 16 345 340 321 306 309 310 313 315 308 281 265 269 264 244 256 278 285 290
347 353 357 358 355 354 355 347 340 340 353 352 2 357 2 12 31 20 337 330 329 325 333 338 6 17 331 312 297 307 305 304 308 307 304 302 298 292 283 270 276 278 285
353 359 359 357 351 4 357 346 344 338 338 347 359 352 5 17 26 18 340 324 323 330 334 341 355 343 315 302 300 308 295 291 303 310 313 314 313 312 311 302 290 282 277
355 356 356 355 352 354 344 341 336 332 342 351 355 354 357 5 21 36 307 292 293 310 329 336 314 301 291 281 251 269 281 303 316 317 320 320 316 314 307 298 292 284 279
344 342 338 335 335 354 335 341 348 349 349 345 348 351 354 359 3 358 350 343 314 308 321 301 258 262 274 297 298 297 314 325 321 322 321 320 318 315 309 308 304 302 298
328 327 324 318 334 340 352 350 345 6 2 340 343 346 350 352 4 357 341 343 341 339 326 322 333 340 340 343 341 338 333 335 331 331 327 326 326 321 317 316 311 307 304
307 312 315 319 329 319 327 360 57 23 72 33 324 325 5 15 351 343 338 330 319 315 319 338 341 340 343 346 345 347 347 345 336 329 329 330 328 325 325 325 319 316 312
298 309 309 315 325 325 325 327 330 268 181 178 180 217 292 312 321 314 307 301 290 293 324 343 339 341 343 345 345 346 347 347 339 336 338 336 332 327 325 326 325 324 319
290 291 290 302 314 317 321 323 322 330 333 335 168 169 217 246 262 281 291 298 324 339 349 341 339 344 344 343 343 342 343 345 343 341 342 338 334 330 328 326 327 329 324
281 293 304 308 300 306 312 317 324 328 332 337 342 37 212 237 224 245 278 329 348 349 348 342 344 346 345 344 341 341 344 346 345 340 340 335 332 329 327 326 326 326 317
266 277 287 289 288 301 311 315 320 325 325 328 333 344 337 315 333 344 346 349 344 348 346 342 343 343 339 339 338 340 342 342 341 341 339 334 330 328 326 324 325 324 321
273 237 219 265 287 302 309 315 316 316 322 330 340 7 329 324 340 348 351 349 347 345 341 336 336 337 338 337 340 342 342 342 342 341 335 330 329 328 325 325 324 323 323
275 272 258 272 292 301 307 306 307 312 320 328 335 352 274 303 338 345 347 344 342 339 339 335 337 344 345 343 341 338 339 340 341 338 331 327 326 324 323 324 327 327 324
264 267 266 274 289 285 284 296 304 310 316 327 332 332 329 334 341 343 339 344 344 341 342 340 339 347 351 348 342 340 344 345 338 330 324 324 326 326 325 324 323 325 330
263 266 268 271 279 285 287 291 299 305 311 321 323 323 325 330 333 338 336 340 344 343 343 343 344 347 348 347 344 349 4 353 334 322 320 319 322 326 328 328 328 334 333
254 254 262 271 278 284 287 289 293 298 303 304 306 313 322 329 332 331 334 341 339 341 344 346 346 346 346 349 354 2 6 350 334 327 317 317 324 329 330 331 333 333 335
248 245 251 255 264 277 280 285 288 290 293 295 300 311 319 321 325 332 335 338 337 342 342 343 344 345 346 351 4 8 358 342 332 323 316 321 329 336 336 334 337 337 338
Height
1487 1486 1485 1484 1483 1482 1481 1480 1479 1478 1477 1475 1474 1473 1471 1469 1468 1467 1465 1464 1463 1462 1460 1459 1458 1457 1456 1455 1454 1453 1452 1451 1449 1448 1447 1446 1444 1443 1442 1441 1441 1440 1440
1486 1485 1483 1482 1481 1480 1480 1479 1478 1476 1475 1473 1472 1470 1469 1468 1466 1465 1463 1462 1461 1459 1458 1456 1455 1455 1453 1452 1451 1450 1449 1448 1447 1445 1443 1442 1441 1439 1438 1437 1437 1436 1436
1485 1484 1482 1481 1480 1479 1478 1477 1476 1475 1473 1471 1470 1468 1467 1466 1464 1462 1461 1460 1458 1457 1455 1454 1453 1452 1450 1449 1448 1447 1446 1445 1444 1442 1440 1439 1438 1437 1435 1434 1433 1432 1431
1484 1483 1481 1479 1478 1478 1477 1475 1474 1473 1471 1470 1468 1467 1465 1464 1462 1461 1459 1457 1456 1455 1453 1452 1451 1450 1448 1447 1446 1445 1444 1442 1441 1439 1437 1436 1435 1433 1432 1431 1429 1428 1427
1483 1482 1480 1479 1478 1476 1475 1474 1473 1471 1470 1468 1467 1465 1463 1462 1460 1459 1457 1456 1454 1452 1451 1450 1449 1447 1446 1445 1444 1442 1441 1439 1438 1436 1434 1433 1432 1430 1429 1427 1426 1424 1423
1483 1481 1479 1478 1477 1475 1474 1473 1472 1470 1469 1467 1466 1464 1462 1461 1459 1457 1455 1454 1452 1451 1449 1448 1446 1445 1443 1442 1440 1439 1438 1437 1435 1433 1432 1430 1429 1428 1426 1424 1422 1420 1419
1482 1481 1479 1478 1476 1475 1474 1473 1471 1470 1468 1466 1464 1463 1461 1460 1458 1456 1454 1452 1451 1449 1447 1445 1445 1444 1441 1440 1438 1436 1435 1433 1432 1430 1429 1427 1426 1424 1422 1420 1418 1417 1415
1482 1480 1479 1477 1476 1475 1473 1472 1471 1469 1467 1465 1464 1462 1460 1459 1457 1455 1453 1451 1449 1447 1446 1444 1442 1441 1439 1437 1435 1434 1432 1430 1428 1426 1425 1423 1422 1420 1419 1417 1415 1413 1412
1481 1480 1478 1477 1475 1474 1473 1471 1470 1468 1467 1465 1464 1462 1460 1458 1456 1455 1452 1450 1448 1446 1444 1442 1441 1439 1437 1434 1433 1431 1429 1427 1426 1423 1421 1420 1418 1416 1415 1414 1412 1411 1409
1481 1479 1478 1476 1475 1474 1473 1472 1470 1469 1467 1466 1464 1462 1460 1458 1456 1454 1451 1450 1447 1445 1443 1441 1439 1437 1435 1432 1430 1428 1426 1424 1423 1421 1419 1417 1415 1413 1412 1411 1410 1408 1406
1480 1479 1477 1476 1475 1474 1473 1472 1470 1469 1468 1466 1464 1462 1460 1458 1456 1453 1451 1449 1447 1445 1443 1441 1438 1435 1433 1430 1428 1426 1423 1421 1420 1418 1416 1414 1413 1411 1409 1408 1406 1405 1404
1480 1479 1477 1476 1476 1475 1473 1472 1471 1469 1468 1466 1464 1462 1460 1458 1455 1453 1450 1448 1446 1443 1441 1439 1437 1433 1431 1428 1426 1424 1421 1419 1418 1416 1414 1412 1410 1408 1406 1405 1403 1401 1400
1480 1479 1478 1477 1476 1475 1474 1472 1471 1469 1468 1466 1464 1462 1460 1458 1455 1452 1449 1447 1445 1442 1440 1438 1435 1432 1429 1427 1425 1422 1420 1418 1416 1414 1412 1409 1408 1405 1404 1402 1400 1398 1397
1480 1479 1478 1477 1476 1475 1474 1472 1471 1469 1468 1466 1464 1462 1459 1457 1455 1452 1449 1447 1444 1442 1439 1436 1434 1431 1429 1426 1424 1422 1419 1417 1414 1412 1410 1408 1406 1404 1401 1400 1398 1396 1394
1480 1479 1478 1477 1476 1474 1473 1472 1471 1469 1467 1466 1464 1462 1460 1457 1454 1451 1448 1446 1443 1440 1437 1436 1434 1431 1429 1426 1424 1421 1418 1416 1413 1411 1408 1406 1404 1402 1400 1398 1396 1394 1392
1479 1478 1478 1477 1476 1474 1473 1471 1469 1468 1466 1464 1462 1461 1458 1456 1453 1450 1448 1445 1442 1439 1437 1435 1433 1431 1428 1426 1423 1420 1418 1415 1412 1410 1407 1405 1402 1400 1398 1396 1394 1392 1389
1479 1478 1477 1476 1475 1474 1472 1471 1469 1468 1466 1464 1461 1459 1457 1455 1452 1449 1447 1444 1442 1439 1437 1435 1433 1431 1428 1425 1423 1420 1417 1414 1411 1408 1406 1403 1401 1398 1396 1394 1392 1390 1388
1478 1477 1476 1475 1474 1473 1472 1470 1469 1467 1465 1463 1461 1459 1456 1454 1451 1449 1446 1444 1442 1439 1438 1435 1433 1431 1428 1425 1422 1419 1416 1413 1410 1407 1405 1402 1400 1397 1395 1393 1391 1389 1386
1477 1477 1475 1474 1473 1472 1471 1469 1468 1466 1465 1463 1461 1458 1455 1453 1451 1448 1446 1444 1442 1440 1438 1435 1433 1430 1428 1425 1422 1419 1416 1413 1410 1407 1404 1401 1399 1397 1394 1392 1389 1387 1384
1476 1475 1474 1473 1472 1471 1470 1468 1467 1466 1464 1462 1460 1458 1455 1453 1451 1448 1446 1444 1442 1439 1437 1435 1432 1430 1427 1424 1421 1418 1415 1412 1409 1406 1404 1401 1398 1396 1393 1391 1388 1386 1383
1475 1474 1473 1472 1471 1470 1469 1468 1466 1465 1463 1461 1459 1456 1454 1452 1450 1448 1446 1443 1441 1439 1436 1434 1432 1429 1426 1423 1420 1417 1414 1411 1409 1406 1403 1400 1397 1395 1392 1389 1387 1384 1381
1474 1473 1472 1471 1470 1469 1468 1467 1465 1464 1462 1460 1458 1456 1453 1451 1450 1448 1445 1443 1440 1438 1436 1433 1431 1428 1425 1422 1419 1416 1413 1410 1407 1404 1402 1399 1396 1394 1391 1388 1386 1383 1380
1472 1471 1471 1470 1469 1468 1467 1465 1464 1462 1461 1459 1457 1455 1453 1451 1449 1447 1444 1442 1439 1437 1434 1432 1430 1427 1424 1421 1418 1415 1412 1409 1406 1403 1400 1398 1395 1392 1389 1387 1384 1382 1380
1471 1470 1469 1469 1468 1467 1465 1464 1463 1461 1460 1458 1456 1454 1452 1450 1448 1445 1443 1441 1438 1436 1433 1430 1428 1425 1422 1419 1416 1414 1410 1407 1404 1401 1398 1396 1393 1391 1388 1386 1383 1381 1379
1469 1468 1468 1467 1466 1465 1464 1463 1461 1460 1458 1456 1455 1453 1451 1449 1447 1444 1442 1439 1437 1434 1431 1429 1426 1423 1420 1417 1414 1411 1408 1404 1401 1398 1396 1394 1392 1390 1387 1385 1383 1380 1378
1467 1466 1466 1465 1464 1463 1462 1461 1459 1458 1456 1455 1453 1452 1450 1447 1445 1443 1440 1438 1435 1432 1429 1427 1424 1421 1418 1415 1412 1409 1406 1403 1400 1397 1394 1393 1391 1389 1386 1384 1382 1380 1378